Miscellaneous Local Product
Issued by NWS North Platte, NE

Home | Current Version | Previous Version | Text Only | Print | Product List | Glossary On
Versions: 1 2 3 4 5 6 7 8 9 10 11 12 13 14 15 16 17 18 19 20 21 22 23 24 25 26 27 28 29 30 31 32 33 34 35 36 37 38 39 40 41 42 43 44 45 46 47 48 49 50
000
AXUS43 KLBF 111010
MISLBF


WESTERN AND NORTH CENTRAL NEBRASKA HOURLY WEATHER ROUNDUP
NATIONAL WEATHER SERVICE NORTH PLATTE NE
400 AM CST SUN DEC 11 2016

NOTE: "FAIR" INDICATES FEW OR NO CLOUDS BELOW 12,000 FEET WITH NO
SIGNIFICANT WEATHER AND/OR OBSTRUCTIONS TO VISIBILITY.

NOTE: STATIONS NOT REPORTING VARIABLES SUCH AS SKY/WEATHER OR
PRESSURE ARE PROVIDED BY RAWS AND APRS NETWORKS AND ARE NOT UNDER
NATIONAL WEATHER SERVICE QUALITY CONTROL.

...OBSERVATIONS IN AND NEAR THE EASTERN PANHANDLE OF NEBRASKA...

CITY           SKY/WX    TMP DP  RH WIND       PRES   REMARKS
PINE RIDGE     CLOUDY     8   6  92 CALM      29.83R
CHADRON        CLOUDY    12   7  80 CALM      29.84R
ALLIANCE       CLOUDY    20  14  77 NE3       29.77R
SIDNEY         CLOUDY    34  23  64 N17       29.76S WCI  23
CRESCENT LAKE    N/A     19  14  81 N7          N/A  WCI  10
$$

...OBSERVATIONS IN NORTHERN NEBRASKA AND FAR SOUTHERN SOUTH DAKOTA...

CITY           SKY/WX    TMP DP  RH WIND       PRES   REMARKS
WINNER         CLOUDY    15  11  83 NW21      29.86R WCI  -2
VALENTINE      CLOUDY    11   7  84 NW12      29.83R FOG     WCI  -3
THEDFORD       CLOUDY    16  12  83 NW17G23   29.78S WCI   0
AINSWORTH      CLOUDY    13  12  95 NW21      29.82R FOG     WCI  -5
O`NEILL        CLOUDY    22  20  92 CALM      29.75R
ORD            CLOUDY    21  17  84 NW7       29.72R WCI  12
BROKEN BOW     CLOUDY    21  17  84 NW17G24   29.74R WCI   7
VALENTINE NWR    N/A     11   8  85 NW16G26     N/A  WCI  -6
BUTTE            N/A     21  19  93 NW9         N/A  WCI  11
HALSEY           N/A     14   9  81 NW12G20     N/A  WCI   0
CHAMBERS         N/A     18  14  82 CALM        N/A
EWING            N/A     21  19  91 CALM        N/A
$$

...OBSERVATIONS IN SOUTHWEST NEBRASKA AND FAR NORTHEAST COLORADO...

CITY           SKY/WX    TMP DP  RH WIND       PRES   REMARKS
WRAY           FAIR      37  30  75 N13G21    29.73R WCI  29
HOLYOKE        FAIR      37  28  70 N20       29.73R WCI  27
IMPERIAL       CLOUDY    31  23  72 N17       29.74R WCI  19
OGALLALA       CLOUDY    33  24  70 N30       29.72F WCI  19
NORTH PLATTE   CLOUDY    25  17  72 N18G25    29.74R WCI  11
MCCOOK         CLOUDY    21  19  92 NW10      29.69S WCI  10
LEXINGTON      CLOUDY    23  20  89 NW5       29.70F WCI  17
STAPLETON        N/A     17  12  82 CALM        N/A
GOTHENBURG       N/A     28  21  74 NW16        N/A  WCI  16
CALLAWAY         N/A     20  15  82 N25         N/A  WCI   3
$$

...OBSERVATIONS IN CENTRAL LINCOLN COUNTY AREA...

CITY           SKY/WX    TMP DP  RH WIND       PRES   REMARKS
N.P. AIRPORT   CLOUDY    25  17  72 N18G25    29.74R WCI  11
N.P. DOWNTOWN    N/A     24  18  77 N7G15       N/A  WCI  16
N.P. HILLCREST   N/A     23  17  78 N12G21      N/A  WCI  12
$$

...SOME OBSERVATIONS FROM AROUND THE REGION...

CITY           SKY/WX    TMP DP  RH WIND       PRES   REMARKS
LARAMIE        CLOUDY    28  24  85 N5        29.76S WCI  23
CHEYENNE       CLOUDY    26  23  88 N9        29.77R WCI  17
DENVER         CLOUDY    34  28  79 E6        29.74S WCI  29
AKRON          CLOUDY    34  26  72 N22       29.74R WCI  22
SCOTTSBLUFF    CLOUDY    31  23  72 NW7       29.80R WCI  24
RAPID CITY     CLOUDY     1  -3  83 SW3       29.84R
BISMARCK       CLOUDY     0  -4  83 E7        29.97F WCI -13
PIERRE         CLOUDY     9   4  80 N10       29.91R WCI  -5
SIOUX FALLS    CLOUDY    22  20  92 SE7       29.82R WCI  13
OMAHA          CLOUDY    32  21  64 SE9       29.79F WCI  24
GRAND ISLAND   CLOUDY    22  20  92 SW5       29.72R WCI  16
KANSAS CITY    CLOUDY    40  24  53 S8        29.81F WCI  34
WICHITA        CLOUDY    47  42  83 S18       29.69F
OKLAHOMA CITY  CLOUDY    49  46  90 S29       29.82F
DALLAS         LGT RAIN  49  44  83 S16       30.01F
AMARILLO       CLOUDY    46  31  55 SW17      29.72F
DODGE CITY     CLOUDY    29  27  92 NW6       29.64R WCI  23
HAYS           CLOUDY    25  24  96 N6        29.67  WCI  18
GOODLAND       CLOUDY    35  26  69 NW15      29.70R WCI  25
$$




USA.gov is the U.S. government's official web portal to all federal, state and local government web resources and services.